User: anonymous   Login
Location: Unspecified
(0.0000°N, 0.0000°E)
Time: 06:08:56
(UTC+00:00)
Language:

Cosmos 1707 - Orbit

View from above orbital plane
View from above orbital plane
View from above satellite
View from above satellite

Ground track
Ground track

The orbit data is extracted from the following two-line orbital elements,

1 16326U 85113A   18017.44787360 +.00000071 +00000-0 +22071-5 0  9997
2 16326 082.5113 357.8263 0009031 284.7510 075.2720 15.13584798749750
Epoch (UTC): 17 January 2018 10:44:56
Eccentricity: 0.0009031
inclination: 82.5113°
perigee height: 519 km
apogee height: 531 km
right ascension of ascending node: 357.8263°
argument of perigee: 284.7510°
revolutions per day: 15.13584798
mean anomaly at epoch: 75.2720°
orbit number at epoch: 74975

The dashed part of the orbit path shows where the satellite is in the earth's shadow,  

DLR